When you browse on this site, cookies collect data to enhance your experience and personalize the content and advertising you see.
Visit our Privacy Policy to learn more. By continuing to use the site, you agree to this use of cookies and data.

Hourly Weather Belém

Today, 5 August, Wednesday

Time Temperature Precipitation Wind Pressure Humidity
00:00 +26°C° 0 mm 3 mps 760 mmHg 85%
01:00 +26°C° 0 mm 3 mps 760 mmHg 87%
02:00 +25°C° 0 mm 2 mps 759 mmHg 89%
03:00 +25°C° 0 mm 2 mps 758 mmHg 92%
04:00 +25°C° 0 mm 2 mps 758 mmHg 93%
05:00 +24°C° 0 mm 1 mps 759 mmHg 95%
06:00 +24°C° 0 mm 1 mps 759 mmHg 96%
07:00 +26°C° 0 mm 1 mps 759 mmHg 87%
08:00 +28°C° 0 mm 2 mps 759 mmHg 77%
09:00 +30°C° 0 mm 2 mps 760 mmHg 68%
10:00 +31°C° 0 mm 2 mps 760 mmHg 58%
11:00 +34°C° 0 mm 3 mps 760 mmHg 49%
12:00 +36°C° 0 mm 3 mps 760 mmHg 39%
13:00 +36°C° 0 mm 2 mps 759 mmHg 38%
14:00 +37°C° 0 mm 2 mps 758 mmHg 37%
15:00 +36°C° 0 mm 1 mps 757 mmHg 35%
16:00 +35°C° 0 mm 2 mps 757 mmHg 44%
17:00 +32°C° 0 mm 2 mps 757 mmHg 52%
18:00 +31°C° 0 mm 3 mps 757 mmHg 60%
19:00 +29°C° 0 mm 3 mps 758 mmHg 64%
20:00 +28°C° 0 mm 3 mps 758 mmHg 68%
21:00 +27°C° 0 mm 3 mps 759 mmHg 72%
22:00 +27°C° 0 mm 3 mps 759 mmHg 76%
23:00 +26°C° 0 mm 3 mps 759 mmHg 80%

Tomorrow, 6 August, Thursday

Time Temperature Precipitation Wind Pressure Humidity
00:00 +26°C° 0 mm 3 mps 760 mmHg 84%
01:00 +26°C° 0 mm 3 mps 759 mmHg 85%
02:00 +26°C° 0 mm 2 mps 758 mmHg 86%
03:00 +26°C° 0 mm 2 mps 758 mmHg 87%
04:00 +26°C° 0 mm 2 mps 758 mmHg 87%
05:00 +26°C° 0 mm 2 mps 758 mmHg 87%
06:00 +25°C° 0 mm 1 mps 758 mmHg 87%
07:00 +27°C° 0 mm 2 mps 759 mmHg 80%
08:00 +28°C° 0 mm 3 mps 759 mmHg 73%
09:00 +29°C° 0 mm 3 mps 760 mmHg 67%
10:00 +31°C° 0 mm 3 mps 760 mmHg 59%
11:00 +33°C° 0 mm 3 mps 759 mmHg 52%
12:00 +35°C° 0 mm 2 mps 759 mmHg 44%
13:00 +36°C° 0 mm 2 mps 759 mmHg 43%
14:00 +36°C° 0 mm 2 mps 758 mmHg 41%
15:00 +37°C° 0 mm 2 mps 757 mmHg 39%
16:00 +35°C° 0 mm 2 mps 757 mmHg 47%
17:00 +33°C° 0 mm 3 mps 757 mmHg 55%
18:00 +31°C° 0 mm 3 mps 757 mmHg 63%
19:00 +30°C° 0 mm 3 mps 758 mmHg 67%
20:00 +29°C° 0 mm 3 mps 758 mmHg 70%
21:00 +28°C° 0 mm 3 mps 759 mmHg 74%
22:00 +27°C° 0 mm 3 mps 759 mmHg 78%
23:00 +27°C° 0 mm 3 mps 759 mmHg 82%

Day after tomorrow, 7 August, Friday

Time Temperature Precipitation Wind Pressure Humidity
00:00 +26°C° 0 mm 3 mps 760 mmHg 86%
01:00 +26°C° 0 mm 3 mps 759 mmHg 88%
02:00 +25°C° 0 mm 3 mps 759 mmHg 90%
03:00 +25°C° 0 mm 2 mps 758 mmHg 93%
04:00 +24°C° 0 mm 2 mps 758 mmHg 93%
05:00 +24°C° 0 mm 2 mps 758 mmHg 94%
06:00 +24°C° 0 mm 2 mps 758 mmHg 94%
07:00 +25°C° 0 mm 2 mps 759 mmHg 85%
08:00 +27°C° 0 mm 3 mps 759 mmHg 76%
09:00 +29°C° 0 mm 3 mps 760 mmHg 67%
10:00 +31°C° 0 mm 3 mps 760 mmHg 58%
11:00 +34°C° 0 mm 2 mps 760 mmHg 50%
12:00 +36°C° 0 mm 2 mps 759 mmHg 42%
13:00 +36°C° 0 mm 2 mps 759 mmHg 41%
14:00 +37°C° 0 mm 2 mps 758 mmHg 40%
15:00 +37°C° 0 mm 2 mps 757 mmHg 39%
16:00 +35°C° 0 mm 2 mps 757 mmHg 48%
17:00 +33°C° 0 mm 3 mps 757 mmHg 56%
18:00 +32°C° 0 mm 4 mps 757 mmHg 65%
19:00 +30°C° 0 mm 3 mps 758 mmHg 69%
20:00 +29°C° 0 mm 3 mps 759 mmHg 72%
21:00 +28°C° 0 mm 3 mps 759 mmHg 75%
22:00 +27°C° 0 mm 3 mps 759 mmHg 79%
23:00 +27°C° 0 mm 3 mps 759 mmHg 82%

8 August, Saturday

Time Temperature Precipitation Wind Pressure Humidity
00:00 +27°C° 0 mm 3 mps 759 mmHg 86%
01:00 +26°C° 0 mm 3 mps 759 mmHg 87%
02:00 +26°C° 0 mm 3 mps 759 mmHg 89%
03:00 +25°C° 0 mm 3 mps 758 mmHg 91%
04:00 +25°C° 0 mm 2 mps 758 mmHg 92%
05:00 +25°C° 0 mm 2 mps 759 mmHg 93%
06:00 +24°C° 0 mm 2 mps 759 mmHg 94%
07:00 +26°C° 0 mm 2 mps 759 mmHg 85%
08:00 +28°C° 0 mm 2 mps 760 mmHg 76%
09:00 +30°C° 0 mm 2 mps 760 mmHg 67%
10:00 +32°C° 0 mm 2 mps 760 mmHg 60%
11:00 +34°C° 0 mm 2 mps 760 mmHg 52%
12:00 +36°C° 0 mm 2 mps 759 mmHg 45%
13:00 +36°C° 0 mm 2 mps 759 mmHg 43%
14:00 +37°C° 0 mm 2 mps 758 mmHg 41%
15:00 +37°C° 0 mm 2 mps 757 mmHg 40%
16:00 +36°C° 0 mm 2 mps 757 mmHg 48%
17:00 +34°C° 0 mm 3 mps 757 mmHg 57%
18:00 +32°C° 0 mm 4 mps 757 mmHg 66%
19:00 +30°C° 0 mm 3 mps 758 mmHg 70%
20:00 +29°C° 0 mm 3 mps 759 mmHg 74%
21:00 +28°C° 0 mm 3 mps 759 mmHg 77%
22:00 +27°C° 0 mm 3 mps 759 mmHg 79%
23:00 +27°C° 0 mm 3 mps 759 mmHg 81%

9 August, Sunday

Time Temperature Precipitation Wind Pressure Humidity
00:00 +26°C° 0 mm 3 mps 759 mmHg 83%
01:00 +26°C° 0 mm 3 mps 759 mmHg 85%
02:00 +25°C° 0 mm 3 mps 759 mmHg 87%
03:00 +25°C° 0 mm 3 mps 758 mmHg 89%
04:00 +25°C° 0 mm 2 mps 758 mmHg 91%
05:00 +24°C° 0 mm 2 mps 758 mmHg 92%
06:00 +24°C° 0 mm 2 mps 758 mmHg 94%
07:00 +26°C° 0 mm 2 mps 759 mmHg 85%
08:00 +28°C° 0 mm 2 mps 759 mmHg 76%
09:00 +30°C° 0 mm 2 mps 760 mmHg 67%
10:00 +32°C° 0 mm 2 mps 760 mmHg 59%
11:00 +35°C° 0 mm 2 mps 759 mmHg 52%
12:00 +36°C° 0 mm 2 mps 759 mmHg 44%
13:00 +36°C° 0.1 mm 2 mps 758 mmHg 45%
14:00 +36°C° 0.1 mm 3 mps 758 mmHg 46%
15:00 +36°C° 0.1 mm 3 mps 757 mmHg 47%
16:00 +34°C° 0.1 mm 3 mps 757 mmHg 54%
17:00 +33°C° 0.1 mm 3 mps 757 mmHg 61%
18:00 +30°C° 0.1 mm 4 mps 757 mmHg 68%
19:00 +30°C° 0 mm 4 mps 757 mmHg 71%
20:00 +29°C° 0 mm 4 mps 758 mmHg 74%
21:00 +28°C° 0 mm 4 mps 758 mmHg 78%
22:00 +27°C° 0 mm 3 mps 758 mmHg 80%
23:00 +27°C° 0 mm 3 mps 758 mmHg 82%

10 August, Monday

Time Temperature Precipitation Wind Pressure Humidity
00:00 +27°C° 0 mm 3 mps 759 mmHg 83%
01:00 +26°C° 0 mm 3 mps 758 mmHg 86%
02:00 +26°C° 0 mm 3 mps 757 mmHg 88%
03:00 +25°C° 0 mm 3 mps 757 mmHg 90%
04:00 +25°C° 0 mm 3 mps 757 mmHg 91%
05:00 +25°C° 0 mm 2 mps 757 mmHg 93%
06:00 +25°C° 0 mm 2 mps 757 mmHg 94%
07:00 +27°C° 0 mm 2 mps 757 mmHg 86%
08:00 +28°C° 0 mm 2 mps 758 mmHg 77%
09:00 +30°C° 0 mm 3 mps 759 mmHg 69%
10:00 +32°C° 0 mm 2 mps 758 mmHg 62%
11:00 +35°C° 0 mm 2 mps 758 mmHg 54%
12:00 +36°C° 0 mm 2 mps 758 mmHg 47%
13:00 +36°C° 0.2 mm 2 mps 757 mmHg 51%
14:00 +35°C° 0.2 mm 3 mps 757 mmHg 54%
15:00 +34°C° 0.2 mm 3 mps 756 mmHg 58%
16:00 +33°C° 1.5 mm 3 mps 756 mmHg 66%
17:00 +30°C° 1.5 mm 3 mps 756 mmHg 75%
18:00 +28°C° 1.5 mm 3 mps 756 mmHg 84%
19:00 +28°C° 0.6 mm 3 mps 757 mmHg 86%
20:00 +27°C° 0.6 mm 3 mps 757 mmHg 89%
21:00 +26°C° 0.6 mm 3 mps 758 mmHg 91%
22:00 +26°C° 0 mm 3 mps 758 mmHg 92%
23:00 +26°C° 0 mm 3 mps 758 mmHg 92%
Show more